Location: Hermaringen
(48.5952°N, 10.2585°E)
Time: 03:04:26
(UTC+00:00)

Altair - Pass Details

Date: 24 February 2026
Orbit: 1502 x 1682 km, 47.2° (Epoch: 7 March)

Event Time Altitude Azimuth Distance (km) Brightness Sun altitude
Rises 08:43:23 0° 290° (WNW) 4,693 9.5 21.2°
Reaches altitude 10° 08:46:42 10° 282° (WNW) 3,729 9.1 21.5°
Maximum altitude 08:54:57 36° 221° (SW) 2,333 8.8 22.5°
Drops below altitude 10° 09:03:27 10° 160° (SSE) 3,843 11.1 23.4°
Sets 09:06:57 0° 152° (SSE) 4,851 11.5 23.8°
